SCP
0 0 0 0 0 0 0 0 0 0 0 0 0 0 0 0 0 0 0 0 0 0
0 0 0 0 0 0 0 0 0 0 0 0 0 0 0 0 0 0 0 0 0 0
0 0 0 0 0 0 0 0 0 0 0 0 0 0 0 0 0 0 0 0 0 0
0 0 0 0 0 0 0 0 0 0 0 0 0 0 0 0 0 0 0 0 0 0
0 0 0 0 0 0 0 0 0 0 0 0 0 0 0 0 0 0 0 0 0 0
0 0 0 0 0 0 0 0 0 0 0 0 0 0 0 0 0 0 0 0 0 0
0 0 0 0 0 0 0 0 0 0 0 0 0 0 0 0 0 0 0 0 0 0
0 0 0 0 0 0 0 0 0 0 0 0 0 0 0 0 0 0 0 0 0 0
0 0 0 0 0 0 0 0 0 0 0 0 0 0 0 0 0 0 0 0 0 0
0 0 0 0 0 0 0 0 0 0 0 0 0 0 0 0 0 0 0 0 0 0
0 0 0 0 0 0 0 0 0 0 0 0 0 0 0 0 0 0 0 0 0 0
0 0 0 0 0 0 0 0 0 0 0 0 0 0 0 0 0 0 0 0 0 0
0 0 0 0 0 0 0 0 0 0 0 0 0 0 0 0 0 0 0 0 0 0
0 0 0 0 0 0 0 0 0 0 0 0 0 0 0 0 0 0 0 0 0 0
Wind_Speed_500mb
76 76 76 75 77 77 76 75 71 72 71 72 74 79 85 90 90 90 91 93 95 93
74 77 77 74 75 76 74 74 76 76 76 73 72 74 76 84 90 92 95 97 100 105
59 65 70 73 77 78 79 81 81 82 83 81 78 75 75 78 81 85 89 92 99 108
51 56 61 66 69 72 74 77 80 81 81 81 79 77 78 78 81 86 85 89 89 96
33 39 44 51 57 63 70 73 77 75 77 76 77 79 80 81 79 82 90 88 94 98
31 34 37 42 45 50 57 63 69 73 72 70 75 75 77 80 78 80 85 87 94 99
28 32 36 39 42 45 48 51 53 58 64 66 65 75 66 69 71 73 73 74 77 84
34 37 38 41 42 43 44 45 47 49 51 55 60 63 67 70 67 73 79 80 75 74
41 44 46 44 44 44 43 44 45 46 50 51 53 54 56 67 72 71 70 71 68 66
46 47 48 47 45 45 46 47 47 49 52 53 53 53 53 54 56 63 64 62 65 66
45 43 43 42 41 41 42 44 47 49 52 53 52 53 52 51 50 52 56 59 58 52
34 33 34 35 37 39 40 41 43 43 42 41 40 42 40 47 47 45 47 52 56 49
29 31 34 36 39 41 43 42 38 35 35 33 33 32 34 33 33 35 41 43 43 41
23 28 32 35 36 36 37 35 34 33 29 28 29 30 31 30 31 36 38 39 41 37
Wind_Direction_500mb
260 262 265 268 271 274 275 275 276 276 274 273 274 273 270 268 266 264 261 258 256 255
257 260 265 271 274 276 277 277 279 280 280 280 279 278 277 274 272 269 267 264 261 257
255 260 264 267 269 272 275 277 280 282 283 283 282 279 278 276 277 274 274 271 268 264
255 260 264 265 268 271 274 275 278 279 279 281 281 281 278 278 277 271 277 276 272 271
250 255 260 265 268 271 273 275 277 280 280 279 280 280 280 279 280 280 280 277 277 272
265 270 271 271 271 272 273 273 273 273 272 273 278 278 280 282 281 281 281 281 281 278
277 282 285 284 281 278 276 276 274 272 273 274 266 268 271 276 280 281 285 286 287 286
270 271 276 277 277 277 277 278 279 280 279 278 276 272 266 268 272 276 279 281 285 288
266 265 266 270 273 277 278 278 280 283 285 285 284 282 277 268 268 272 279 284 284 288
269 272 269 271 275 280 283 283 283 286 287 287 286 283 282 279 274 275 280 283 283 281
268 265 265 271 280 282 284 287 291 294 294 295 296 294 289 281 276 277 280 282 289 287
259 262 268 277 282 283 285 288 289 289 290 296 302 300 297 290 279 270 276 278 282 291
261 266 272 275 277 278 279 278 280 284 294 301 306 312 316 316 303 285 289 293 298 300
268 276 278 280 281 283 282 282 281 285 285 292 304 306 303 304 301 303 304 301 301 300
Wind_Speed_850mb
76 76 76 75 77 77 76 75 71 72 71 72 74 79 85 90 90 90 91 93 95 93
74 77 77 74 75 76 74 74 76 76 76 73 72 74 76 84 90 92 95 97 100 105
59 65 70 73 77 78 79 81 81 82 83 81 78 75 75 78 81 85 89 92 99 108
51 56 61 66 69 72 74 77 80 81 81 81 79 77 78 78 81 86 85 89 89 96
33 39 44 51 57 63 70 73 77 75 77 76 77 79 80 81 79 82 90 88 94 98
31 34 37 42 45 50 57 63 69 73 72 70 75 75 77 80 78 80 85 87 94 99
28 32 36 39 42 45 48 51 53 58 64 66 65 75 66 69 71 73 73 74 77 84
34 37 38 41 42 43 44 45 47 49 51 55 60 63 67 70 67 73 79 80 75 74
41 44 46 44 44 44 43 44 45 46 50 51 53 54 56 67 72 71 70 71 68 66
46 47 48 47 45 45 46 47 47 49 52 53 53 53 53 54 56 63 64 62 65 66
45 43 43 42 41 41 42 44 47 49 52 53 52 53 52 51 50 52 56 59 58 52
34 33 34 35 37 39 40 41 43 43 42 41 40 42 40 47 47 45 47 52 56 49
29 31 34 36 39 41 43 42 38 35 35 33 33 32 34 33 33 35 41 43 43 41
23 28 32 35 36 36 37 35 34 33 29 28 29 30 31 30 31 36 38 39 41 37
Wind_Direction_850mb
260 262 265 268 271 274 275 275 276 276 274 273 274 273 270 268 266 264 261 258 256 255
257 260 265 271 274 276 277 277 279 280 280 280 279 278 277 274 272 269 267 264 261 257
255 260 264 267 269 272 275 277 280 282 283 283 282 279 278 276 277 274 274 271 268 264
255 260 264 265 268 271 274 275 278 279 279 281 281 281 278 278 277 271 277 276 272 271
250 255 260 265 268 271 273 275 277 280 280 279 280 280 280 279 280 280 280 277 277 272
265 270 271 271 271 272 273 273 273 273 272 273 278 278 280 282 281 281 281 281 281 278
277 282 285 284 281 278 276 276 274 272 273 274 266 268 271 276 280 281 285 286 287 286
270 271 276 277 277 277 277 278 279 280 279 278 276 272 266 268 272 276 279 281 285 288
266 265 266 270 273 277 278 278 280 283 285 285 284 282 277 268 268 272 279 284 284 288
269 272 269 271 275 280 283 283 283 286 287 287 286 283 282 279 274 275 280 283 283 281
268 265 265 271 280 282 284 287 291 294 294 295 296 294 289 281 276 277 280 282 289 287
259 262 268 277 282 283 285 288 289 289 290 296 302 300 297 290 279 270 276 278 282 291
261 266 272 275 277 278 279 278 280 284 294 301 306 312 316 316 303 285 289 293 298 300
268 276 278 280 281 283 282 282 281 285 285 292 304 306 303 304 301 303 304 301 301 300